Location: Bazinghen
(50.8246°N, 1.6616°E)
Time: 03:45:59
(UTC+00:00)

STARLINK-1245 - Pass Details

Date: 09 April 2020
Orbit: 549 x 551 km, 53.0° (Epoch: 26 May)

Event Time Altitude Azimuth Distance (km) Brightness Sun altitude
Rises 20:08:13 0° 289° (WNW) 2,783 8.9 -13.7°
Maximum altitude 20:14:17 25° 221° (SW) 1,169 5.4 -14.5°
Enters shadow 20:17:02 14° 173° (S) 1,635 5.6 -14.8°
